Puerto Plata, Dominican Republic

10:56 PM AST on August 29, 2016 (GMT -0400)
Gregorio Luperon International

Weather History for MDPP - November, 2012

Change the Weather History Date:

Wednesday, November 28, 2012

  Actual Average Record
Temperature  
Mean Temperature 77 °F -  
Max Temperature 86 °F 81 °F 89 °F (2002)
Min Temperature 68 °F 69 °F 65 °F (2015)
Cooling Degree Days 12    
Growing Degree Days 27 (Base 50)    
Moisture  
Dew Point 75 °F    
Average Humidity 86    
Maximum Humidity 100    
Minimum Humidity 74    
Precipitation  
Precipitation 0.02 in - - ()
Sea Level Pressure  
Sea Level Pressure 29.94 in    
Wind  
Wind Speed 1 mph ()    
Max Wind Speed 12 mph    
Max Gust Speed -    
Visibility 7.1 miles    
Events      
Averages and records for this station are not official NWS values.
T = Trace of Precipitation, MM = Missing Value Source: Averaged Metar Reports

Daily Weather History Graph

Daily Weather History Graph

Search for Another Location

Airport or City:

Trip Planner

Search our weather history database for the weather conditions in past years. The results will help you decide how hot, cold, wet, or windy it might be!

Date:

Astronomy

Nov. 28, 2012 Rise Set
Actual Time 6:58 AM AST 6:01 PM AST
Civil Twilight 6:35 AM AST 6:25 PM AST
Nautical Twilight 6:08 AM AST 6:52 PM AST
Astronomical Twilight 5:41 AM AST 7:19 PM AST
Moon 6:14 PM AST (11/28) 6:53 AM AST (11/28)
Length of Visible Light 11h 50m
Length of Day
11h 02m
Full, 100% of the Moon is Illuminated
Nov 28
Full
Dec 6
Last Quarter
Dec 13
New
Dec 20
First Quarter
Dec 28
Full

Hourly Weather History & Observations

Time (AST) Temp. Heat Index Dew Point Humidity Pressure Visibility Wind Dir Wind Speed Gust Speed Precip Events Conditions
2:00 AM 72 °F - 70 °F 93% 29.96 in 10 mi Calm Calm - -   Mostly Cloudy
2:00 AM 71.6 °F - 69.8 °F 94% 29.95 in 6.2 mi Calm Calm - N/A   Mostly Cloudy
5:00 AM 73.4 °F - 71.6 °F 94% 29.86 in 6.2 mi Calm Calm - N/A   Mostly Cloudy
7:00 AM 73.4 °F - 71.6 °F 94% 29.92 in 6.2 mi Calm Calm - N/A   Scattered Clouds
8:00 AM 72 °F - 72 °F 100% 29.94 in 10 mi Calm Calm - -   Partly Cloudy
8:00 AM 73.4 °F - 71.6 °F 94% 29.92 in 6.2 mi Calm Calm - N/A   Scattered Clouds
9:00 AM 78.8 °F - 75.2 °F 89% 29.95 in 6.2 mi Calm Calm - N/A   Scattered Clouds
10:00 AM 82.4 °F 89.5 °F 75.2 °F 79% 29.98 in 6.2 mi Calm Calm - N/A   Mostly Cloudy
11:00 AM 82.4 °F 89.5 °F 75.2 °F 79% 29.98 in 6.2 mi North 5.8 mph - N/A   Scattered Clouds
12:00 PM 82.4 °F 89.5 °F 75.2 °F 79% 29.95 in 6.2 mi North 5.8 mph - N/A   Scattered Clouds
1:00 PM 86.0 °F 96.9 °F 77.0 °F 74% 29.92 in 6.2 mi Calm Calm - N/A   Scattered Clouds
2:00 PM 84 °F - 77 °F 74% 29.91 in 10 mi Calm Calm - -   Partly Cloudy
2:00 PM 84.2 °F 94.1 °F 77.0 °F 79% 29.89 in 6.2 mi Calm Calm - N/A   Scattered Clouds
3:00 PM 86.0 °F 96.9 °F 77.0 °F 74% 29.95 in 6.2 mi ENE 11.5 mph - N/A   Partly Cloudy
4:00 PM 84.2 °F 94.1 °F 77.0 °F 79% 29.92 in 6.2 mi ENE 5.8 mph - N/A   Scattered Clouds
5:00 PM 82 °F - 77 °F 81% 29.95 in 10 mi Calm Calm - -   Partly Cloudy
5:00 PM 82.4 °F 90.9 °F 77.0 °F 84% 29.95 in 6.2 mi Calm Calm - N/A   Scattered Clouds
6:00 PM 80.6 °F 87.1 °F 77.0 °F 89% 29.95 in 6.2 mi Calm Calm - N/A   Scattered Clouds
7:00 PM 80.6 °F 87.1 °F 77.0 °F 89% 29.95 in 6.2 mi Calm Calm - N/A   Mostly Cloudy
8:00 PM 78.8 °F - 77.0 °F 94% 29.95 in 6.2 mi Calm Calm - N/A   Mostly Cloudy
11:00 PM 78 °F - 76 °F 90% 30.01 in 10 mi Calm Calm - -   Mostly Cloudy